Simultaneous Nadir Overpasses (SNOs) Predictions

Prediction of SNOs between AQUA and METOP-C Satellite Orbit:

Table of predicted SNOs for the next 14.0 days since TLE Epoch: 7/8/2023
Index Date (AQUA) Time (AQUA) Lat,Lon (AQUA) SZA (AQUA ) Date (METOP-C) Time (METOP-C) Lat,Lon (METOP-C) SZA (METOP-C ) Distance(km) Time Diff (sec)
1 07/09/2023 01:38:35 -74.56, -28.61 127.86 07/09/2023 01:37:46 -74.56, -28.61 127.85 0.20 49
2 07/09/2023 02:28:02 74.64, 138.83 52.23 07/09/2023 02:28:23 74.64, 138.96 52.23 3.86 21
3 07/11/2023 19:31:08 -74.60, 63.17 127.46 07/11/2023 19:30:45 -74.59, 63.22 127.47 2.11 23
4 07/11/2023 20:20:34 74.64,-129.27 52.58 07/11/2023 20:21:23 74.63,-129.34 52.57 2.20 49
5 07/14/2023 12:34:14 74.57, -12.51 52.90 07/14/2023 12:33:01 74.58, -12.39 52.91 3.69 73
6 07/14/2023 13:23:38 -74.59, 155.09 127.08 07/14/2023 13:23:43 -74.61, 155.04 127.05 2.78 5
7 07/14/2023 14:13:07 74.79, -37.76 53.14 07/14/2023 14:14:18 74.80, -37.13 53.12 18.26 71
8 07/17/2023 06:26:44 74.57, 79.41 53.33 07/17/2023 06:26:00 74.59, 79.40 53.37 2.74 44
9 07/17/2023 07:16:09 -74.63,-113.10 126.59 07/17/2023 07:16:42 -74.63,-113.17 126.60 2.05 33
10 07/19/2023 23:29:39 -74.10, 4.80 126.69 07/19/2023 23:28:32 -74.02, 2.36 126.67 74.92 67
11 07/20/2023 00:19:14 74.61, 171.21 53.87 07/20/2023 00:18:59 74.60, 171.18 53.86 1.36 15



Historial Predications of SNOs between AQUA and METOP-C
